Notices

What's New in latest Release from April 7th, 2021:

- Updated Glossary, including Speed of Maximum Gust, and Total Hourly Precipitation

- Updated national and regional climate services offices contacts and prices information

- Addition of station inventory lists for 1981-2010, 1971-2000, and 1961-1990 Normals.

If you haven't already, please take our survey and provide feedback about our website: https://eccc.sondage-survey.ca/f/LanguageSelection.aspx?s=442ca660-fcf1-47c0-95a9-59707d6fd709

Hourly Data Report for April 30, 2021

KENORA A
ONTARIO
Current Station Operator: NAVCAN

49°47'18.000" N
94°21'47.000" W
409.70 m
6034076
71850
YQK

Download Data

Hourly Data (April 2021)
Hourly Data Report for April 30, 2021
TIME
LST
Temp Definition
°C
Dew Point Definition
°C
Rel Hum Definition
%
Precip. Amount Definition
mm

Wind Dir Definition
10's deg

Wind Spd Definition
km/h
Visibility Definition
km
Stn Press Definition
kPa
Hmdx Definition


Wind Chill Definition


Weather Definition


00:00 0.4 -7.4 56   30 11 32.2 97.27     Clear
01:00 -0.3 -8.0 56   29 13 32.2 97.29   -4 LegendNANA
02:00 -1.0 -7.6 61   29 12 32.2 97.33   -5 LegendNANA
03:00 -1.0 -8.0 59   30 12 32.2 97.36   -5 Clear
04:00 -1.3 -8.0 60   31 12 32.2 97.37   -5 LegendNANA
05:00 -1.8 -7.7 64   30 9 32.2 97.40   -5 LegendNANA
06:00 -0.7 -7.5 60   33 10 32.2 97.44   -4 Clear
07:00 0.0 -7.2 58   31 10 32.2 97.50   -3 LegendNANA
08:00 2.2 -7.7 48   36 2 32.2 97.49     LegendNANA
09:00 4.4 -9.0 37   27 5 32.2 97.48     Mainly Clear
10:00 5.7 -8.2 36   14 7 32.2 97.41     LegendNANA
11:00 6.6 -10.0 30   25 14 32.2 97.34     LegendNANA
12:00 7.5 -14.3 20   17 14 32.2 97.27     Mainly Clear
13:00 8.8 -9.7 26   21 20 32.2 97.17     LegendNANA
14:00 10.0 -15.1 16   18 26 32.2 97.04     LegendNANA
15:00 10.3 -14.5 16   22 27 32.2 96.91     Mostly Cloudy
16:00 9.7 -11.2 22   21 26 32.2 96.77     LegendNANA
17:00 9.7 -9.4 25   21 15 32.2 96.62     LegendNANA
18:00 8.9 -8.0 30   20 14 32.2 96.49     Cloudy
19:00 7.6 -3.7 45   20 18 24.1 96.38     Rain
20:00 5.2 0.3 70   19 16 24.1 96.31     Rain
21:00 5.1 0.8 74   16 14 32.2 96.14     Cloudy
22:00 5.2 0.6 72   17 21 32.2 95.94     LegendNANA
23:00 5.5 -0.2 67   17 18 32.2 95.79     LegendNANA

Notes on Data Quality.

Legend

  • E = Estimated
  • M = Missing
  • NA = Not Available*
  • [empty] = Indicates an unobserved value
Date modified: